• Em Portugal
  • Lista de países
  • Para 7 dias
  • Temperatura da água
  • Mapas de satélite
  • Mapa do tempo
  • Widgets de tempo
  • user-avatar
    Iniciar Sessão

    Previsão horária em Brčko

    Hoje, 25 Setembro, Terça-feira

    Tempo Temperatura Precipitação Vento Pressão Humidade
    00:00 +7°C° 0 mm 2 m/s 764 mmHg 80%
    01:00 +7°C° 0 mm 1 m/s 764 mmHg 83%
    02:00 +6°C° 0 mm 2 m/s 765 mmHg 83%
    03:00 +6°C° 0 mm 2 m/s 765 mmHg 83%
    04:00 +6°C° 0 mm 2 m/s 765 mmHg 84%
    05:00 +7°C° 0 mm 2 m/s 765 mmHg 80%
    06:00 +7°C° 0 mm 2 m/s 765 mmHg 76%
    07:00 +9°C° 0 mm 3 m/s 766 mmHg 71%
    08:00 +11°C° 0 mm 3 m/s 766 mmHg 61%
    09:00 +12°C° 0 mm 4 m/s 766 mmHg 52%
    10:00 +14°C° 0 mm 4 m/s 766 mmHg 42%
    11:00 +15°C° 0 mm 5 m/s 766 mmHg 38%
    12:00 +16°C° 0 mm 5 m/s 765 mmHg 35%
    13:00 +16°C° 0 mm 5 m/s 765 mmHg 31%
    14:00 +16°C° 0 mm 5 m/s 765 mmHg 31%
    15:00 +16°C° 0 mm 5 m/s 765 mmHg 31%
    16:00 +15°C° 0 mm 5 m/s 765 mmHg 32%
    17:00 +13°C° 0 mm 4 m/s 766 mmHg 36%
    18:00 +12°C° 0 mm 3 m/s 766 mmHg 41%
    19:00 +10°C° 0 mm 2 m/s 767 mmHg 46%
    20:00 +9°C° 0 mm 2 m/s 767 mmHg 49%
    21:00 +8°C° 0 mm 2 m/s 768 mmHg 52%
    22:00 +8°C° 0 mm 2 m/s 768 mmHg 55%
    23:00 +7°C° 0 mm 2 m/s 768 mmHg 57%

    Amanhã, 26 Setembro, Quarta-feira

    Tempo Temperatura Precipitação Vento Pressão Humidade
    00:00 +6°C° 0 mm 2 m/s 768 mmHg 60%
    01:00 +7°C° 0 mm 1 m/s 769 mmHg 62%
    02:00 +6°C° 0 mm 1 m/s 769 mmHg 65%
    03:00 +6°C° 0 mm 1 m/s 769 mmHg 67%
    04:00 +5°C° 0 mm 1 m/s 769 mmHg 69%
    05:00 +6°C° 0 mm 1 m/s 769 mmHg 65%
    06:00 +7°C° 0 mm 1 m/s 770 mmHg 62%
    07:00 +8°C° 0 mm 1 m/s 770 mmHg 58%
    08:00 +10°C° 0 mm 1 m/s 770 mmHg 51%
    09:00 +13°C° 0 mm 2 m/s 770 mmHg 43%
    10:00 +14°C° 0 mm 3 m/s 770 mmHg 35%
    11:00 +16°C° 0 mm 3 m/s 769 mmHg 32%
    12:00 +17°C° 0 mm 3 m/s 769 mmHg 29%
    13:00 +18°C° 0 mm 3 m/s 768 mmHg 26%
    14:00 +18°C° 0 mm 3 m/s 768 mmHg 26%
    15:00 +18°C° 0 mm 3 m/s 768 mmHg 26%
    16:00 +18°C° 0 mm 2 m/s 767 mmHg 26%
    17:00 +15°C° 0 mm 2 m/s 768 mmHg 31%
    18:00 +13°C° 0 mm 1 m/s 768 mmHg 35%
    19:00 +11°C° 0 mm 1 m/s 768 mmHg 40%
    20:00 +10°C° 0 mm 1 m/s 768 mmHg 41%
    21:00 +9°C° 0 mm 1 m/s 769 mmHg 43%
    22:00 +9°C° 0 mm 1 m/s 769 mmHg 44%
    23:00 +8°C° 0 mm 1 m/s 769 mmHg 45%

    Depois de amanhã, 27 Setembro, Quinta-feira

    Tempo Temperatura Precipitação Vento Pressão Humidade
    00:00 +8°C° 0 mm 1 m/s 769 mmHg 46%
    01:00 +8°C° 0 mm 1 m/s 768 mmHg 47%
    02:00 +7°C° 0 mm 1 m/s 768 mmHg 48%
    03:00 +7°C° 0 mm 1 m/s 768 mmHg 48%
    04:00 +7°C° 0 mm 1 m/s 767 mmHg 49%
    05:00 +8°C° 0 mm 1 m/s 767 mmHg 47%
    06:00 +9°C° 0 mm 1 m/s 767 mmHg 44%
    07:00 +10°C° 0 mm 1 m/s 767 mmHg 42%
    08:00 +13°C° 0 mm 1 m/s 767 mmHg 36%
    09:00 +15°C° 0 mm 1 m/s 767 mmHg 31%
    10:00 +19°C° 0 mm 1 m/s 766 mmHg 25%
    11:00 +20°C° 0 mm 1 m/s 766 mmHg 23%
    12:00 +21°C° 0 mm 1 m/s 765 mmHg 21%
    13:00 +22°C° 0 mm 1 m/s 765 mmHg 20%
    14:00 +22°C° 0 mm 1 m/s 764 mmHg 20%
    15:00 +22°C° 0 mm 1 m/s 764 mmHg 21%
    16:00 +22°C° 0 mm 1 m/s 763 mmHg 22%
    17:00 +19°C° 0 mm 1 m/s 763 mmHg 25%
    18:00 +16°C° 0 mm 1 m/s 763 mmHg 29%
    19:00 +14°C° 0 mm 1 m/s 763 mmHg 32%
    20:00 +13°C° 0 mm 1 m/s 763 mmHg 33%
    21:00 +13°C° 0 mm 1 m/s 763 mmHg 34%
    22:00 +12°C° 0 mm 1 m/s 763 mmHg 35%
    23:00 +12°C° 0 mm 1 m/s 762 mmHg 36%

    28 Setembro, Sexta-feira

    Tempo Temperatura Precipitação Vento Pressão Humidade
    00:00 +11°C° 0 mm 1 m/s 762 mmHg 37%
    01:00 +11°C° 0 mm 1 m/s 762 mmHg 38%
    02:00 +11°C° 0 mm 1 m/s 761 mmHg 38%
    03:00 +10°C° 0 mm 1 m/s 760 mmHg 39%
    04:00 +10°C° 0 mm 1 m/s 760 mmHg 39%
    05:00 +11°C° 0 mm 1 m/s 760 mmHg 38%
    06:00 +12°C° 0 mm 1 m/s 759 mmHg 37%
    07:00 +13°C° 0 mm 1 m/s 759 mmHg 36%
    08:00 +15°C° 0 mm 1 m/s 759 mmHg 32%
    09:00 +18°C° 0 mm 2 m/s 758 mmHg 28%
    10:00 +20°C° 0 mm 2 m/s 758 mmHg 24%
    11:00 +22°C° 0 mm 3 m/s 757 mmHg 24%
    12:00 +24°C° 0 mm 3 m/s 756 mmHg 24%
    13:00 +25°C° 0 mm 3 m/s 756 mmHg 23%
    14:00 +25°C° 0 mm 3 m/s 755 mmHg 25%
    15:00 +25°C° 0 mm 3 m/s 755 mmHg 27%
    16:00 +25°C° 0 mm 3 m/s 754 mmHg 29%
    17:00 +21°C° 0 mm 2 m/s 754 mmHg 34%
    18:00 +19°C° 0 mm 2 m/s 755 mmHg 40%
    19:00 +16°C° 0 mm 1 m/s 755 mmHg 45%
    20:00 +16°C° 0 mm 1 m/s 755 mmHg 47%
    21:00 +15°C° 0 mm 1 m/s 755 mmHg 49%
    22:00 +15°C° 0 mm 1 m/s 755 mmHg 51%
    23:00 +14°C° 0 mm 1 m/s 755 mmHg 52%

    29 Setembro, Sábado

    Tempo Temperatura Precipitação Vento Pressão Humidade
    00:00 +14°C° 0 mm 1 m/s 755 mmHg 54%
    01:00 +13°C° 0 mm 1 m/s 755 mmHg 55%
    02:00 +13°C° 0 mm 1 m/s 755 mmHg 56%
    03:00 +12°C° 0 mm 1 m/s 755 mmHg 57%
    04:00 +12°C° 0 mm 1 m/s 755 mmHg 58%
    05:00 +13°C° 0 mm 1 m/s 756 mmHg 56%
    06:00 +13°C° 0 mm 1 m/s 756 mmHg 55%
    07:00 +14°C° 0 mm 2 m/s 756 mmHg 53%
    08:00 +16°C° 0 mm 2 m/s 756 mmHg 46%
    09:00 +19°C° 0 mm 2 m/s 756 mmHg 40%
    10:00 +21°C° 0 mm 3 m/s 756 mmHg 34%
    11:00 +22°C° 0 mm 3 m/s 756 mmHg 33%
    12:00 +23°C° 0 mm 4 m/s 756 mmHg 32%
    13:00 +25°C° 0 mm 4 m/s 756 mmHg 31%
    14:00 +25°C° 0 mm 4 m/s 756 mmHg 33%
    15:00 +23°C° 0 mm 4 m/s 756 mmHg 35%
    16:00 +23°C° 0 mm 4 m/s 756 mmHg 36%
    17:00 +21°C° 0 mm 4 m/s 756 mmHg 42%
    18:00 +19°C° 0 mm 3 m/s 757 mmHg 48%
    19:00 +16°C° 0 mm 3 m/s 757 mmHg 54%
    20:00 +15°C° 0 mm 2 m/s 758 mmHg 56%
    21:00 +15°C° 0 mm 2 m/s 758 mmHg 58%
    22:00 +14°C° 0 mm 2 m/s 758 mmHg 60%
    23:00 +13°C° 0 mm 1 m/s 759 mmHg 60%

    30 Setembro, Domingo

    Tempo Temperatura Precipitação Vento Pressão Humidade
    00:00 +13°C° 0 mm 1 m/s 759 mmHg 60%
    01:00 +13°C° 0 mm 1 m/s 759 mmHg 60%
    02:00 +12°C° 0 mm 1 m/s 759 mmHg 63%
    03:00 +11°C° 0 mm 1 m/s 758 mmHg 65%
    04:00 +10°C° 0 mm 1 m/s 758 mmHg 67%
    05:00 +11°C° 0 mm 1 m/s 758 mmHg 66%
    06:00 +11°C° 0 mm 1 m/s 758 mmHg 64%
    07:00 +11°C° 0 mm 1 m/s 758 mmHg 63%
    08:00 +13°C° 0 mm 1 m/s 758 mmHg 55%
    09:00 +16°C° 0 mm 1 m/s 758 mmHg 47%
    10:00 +19°C° 0 mm 1 m/s 758 mmHg 39%
    11:00 +19°C° 0 mm 2 m/s 757 mmHg 36%
    12:00 +20°C° 0 mm 2 m/s 756 mmHg 33%
    13:00 +21°C° 0 mm 3 m/s 756 mmHg 29%
    14:00 +21°C° 0 mm 3 m/s 755 mmHg 30%
    15:00 +21°C° 0 mm 3 m/s 755 mmHg 32%
    16:00 +20°C° 0 mm 3 m/s 755 mmHg 33%
    17:00 +18°C° 0 mm 2 m/s 755 mmHg 40%
    18:00 +16°C° 0 mm 2 m/s 755 mmHg 47%
    19:00 +14°C° 0 mm 1 m/s 755 mmHg 54%
    20:00 +13°C° 0 mm 1 m/s 755 mmHg 59%
    21:00 +13°C° 0 mm 1 m/s 755 mmHg 64%
    22:00 +12°C° 0 mm 1 m/s 755 mmHg 69%
    23:00 +12°C° 0 mm 1 m/s 754 mmHg 72%
    Mostrar mais